Skip Page Navigation
NASA JPL Caltech
NASA Logo - Jet Propulsion Laboratory + View the NASA Portal
+ Near-Earth Object (NEO) Program
Search JPL
JPL Home Earth Solar System Stars & Galaxies Technology
JPL Solar System Dynamics
BODIES ORBITS EPHEMERIDES TOOLS PHYSICAL DATA DISCOVERY FAQ SITE MAP
JPL Small-Body Database Browser
Search: [ help ]  
73511 Lovas (2002 YD3)
Classification: Main-belt Asteroid          SPK-ID: 2073511
Ephemeris | Orbit Diagram | Orbital Elements | Physical Parameters | Discovery Circumstances | Close-Approach Data ]

[ show orbit diagram ]
Orbital Elements at Epoch 2457000.5 (2014-Dec-09.0) TDB
Reference: JPL 6 (heliocentric ecliptic J2000)
 Element Value Uncertainty (1-sigma)   Units 
e .09142316558837443 7.2669e-08  
a 3.139592535029835 5.3685e-08 AU
q 2.852561046819778 2.3007e-07 AU
i 15.9335481939118 8.6836e-06 deg
node 103.9206960061878 4.0564e-05 deg
peri 187.1463129307169 7.9761e-05 deg
M 228.3079815886579 7.0293e-05 deg
tp 2457743.802017937939
(2016-Dec-21.30201794)
0.00039556 JED
period 2031.928204045294
5.56
5.2117e-05
1.427e-07
d
yr
n .1771716142742094 4.5443e-09 deg/d
Q 3.426624023239891 5.8593e-08 AU
  Orbit Determination Parameters
   # obs. used (total)      351  
   data-arc span      5819 days (15.93 yr)  
   first obs. used      1998-01-24  
   last obs. used      2013-12-30  
   planetary ephem.      DE431  
   SB-pert. ephem.      SB431-BIG16  
   condition code      0  
   fit RMS      .55044  
   data source      ORB  
   producer      Otto Matic  
   solution date      2014-Jun-10 13:40:04  

Additional Information
 Earth MOID = 1.83812 AU 
 T_jup = 3.145 
[ show covariance matrix ]

Ephemeris | Orbit Diagram | Orbital Elements | Physical Parameters | Discovery Circumstances | Close-Approach Data ]

Physical Parameter Table
Parameter Symbol Value Units Sigma Reference Notes
absolute magnitude H 13.8 mag n/a MPO250855  

73511 Lovas           Discovered 2002 Dec. 25 by K. Sárneczky at Piszkesteto.
Miklós Lovas (b. 1931) has been the most successful Hungarian discoverer working in astronomy. He discovered 42 supernovae, five comets and two minor planets in the course of the supernova search program at the Konkoly Observatory between 1964 and 1995.
NOTE: some special characters may not display properly (any characters within {} are an attempt to place the proper accent above a character)
Reference: 20041126/MPCPages.arcLast Updated: 2004-12-06

[ show close-approach data ]
Alternate Designations
 2002 YD3 = 1999 JF92 
Ephemeris | Orbit Diagram | Orbital Elements | Physical Parameters | Discovery Circumstances | Close-Approach Data ]
ABOUT SSD CREDITS/AWARDS PRIVACY/COPYRIGHT GLOSSARY LINKS
FirstGov 2014-Sep-02 04:28 UT
(server date/time)  
NASA Home Page
Site Manager:   Donald K. Yeomans
Webmaster  Alan B. Chamberlin